Погода в Лопхарях

Россия / Ямало-Ненецкий автономный округ     64°59′00″N   65°45′45″E
темп.,
°C
ветер,
м/с
пор.,
м/с
влажн.,
%
обл.,
%
осадки,
мм/ч
давл.,
гПа
погр.,
м
13 мая, чт
чт1323:00+10зюз51188100 0.2 1015211
02:00+9сз10157621 0.1 1017535
05:00+7сз10157938 0.1 1019713
08:00+7ссз9106819 0.0 1023727
11:00+9ссз784880 0.0 1024983
14:00+10ссз564042 0.0 10251111
17:00+11ссз333222 0.0 10251036
20:00+11ююз1233100 0.0 1024747
14 мая, пт
пт1423:00+9ююв4547100 0.0 102185
02:00+9ю71352100 0.0 1017263
05:00+10юз71472100 0.1 1012251
08:00+17з916600 0.0 1009474
11:00+22зсз912410 0.0 10091346
14:00+22сз10134130 0.0 10101622
17:00+20ссз810445 0.0 10111343
20:00+16ссв67495 0.0 1012652
15 мая, сб
сб1523:00+11всв796683 0.0 1013427
02:00+7всв7870100 0.0 1014445
05:00+5всв7972100 0.1 1015520
08:00+3всв8985100 0.4 1016539
11:00+3в7983100 0.7 1017553
14:00+3всв6781100 0.1 1018525
17:00+3в5689100 0.4 1019399
20:00+2в4599100 1.3 1019227
16 мая, вс
вс1623:00+2в3599100 2.5 1018225
02:00+2в3599100 0.5 1017294
05:00+2в4699100 0.6 1016339
08:00+2в5798100 0.6 1015343
11:00+2всв5798100 0.8 1014357
14:00+3всв5796100 0.1 1013486
17:00+4всв6789100 0.2 1013631
20:00+4всв5782100 0.1 1014791
17 мая, пн
пн1723:00+4всв4673100 0.1 1015274
02:00+4св347195 0.0 101698
05:00+3св466899 0.0 1018255
08:00+5св446380 0.0 1019484
11:00+8св435069 0.0 10201406
14:00+9св334063 0.0 10201718
17:00+10св333631 0.0 10201811
20:00+9св533969 0.0 10201480